Time,TemperatureF,DewpointF,PressureIn,WindDirection,WindDirectionDegrees,WindSpeedMPH,WindSpeedGustMPH,Humidity,HourlyPrecipIn,Conditions,Clouds,dailyrainin,SoftwareType,DateUTC
2013-08-19 00:05:00,57.6,48.0,29.71,WSW,256,0.0,1.0,70,0.00,,,0.00,weatherlink.com 1.10,2013-08-19 06:05:00,
2013-08-19 00:20:00,56.7,49.0,29.71,WSW,252,1.0,1.0,75,0.00,,,0.00,weatherlink.com 1.10,2013-08-19 06:20:00,
2013-08-19 00:35:00,56.5,48.0,29.71,SW,221,0.0,2.0,72,0.00,,,0.00,weatherlink.com 1.10,2013-08-19 06:35:00,
2013-08-19 00:50:00,55.3,47.0,29.72,SW,220,0.0,1.0,74,0.00,,,0.00,weatherlink.com 1.10,2013-08-19 06:50:00,
2013-08-19 01:05:00,54.5,46.0,29.72,SW,221,0.0,1.0,74,0.00,,,0.00,weatherlink.com 1.10,2013-08-19 07:05:00,
2013-08-19 01:20:00,53.8,46.0,29.72,SW,221,0.0,1.0,76,0.00,,,0.00,weatherlink.com 1.10,2013-08-19 07:20:00,
2013-08-19 01:35:00,53.1,45.0,29.72,SW,221,0.0,0.0,75,0.00,,,0.00,weatherlink.com 1.10,2013-08-19 07:35:00,
2013-08-19 01:50:00,52.2,46.0,29.72,SW,221,0.0,0.0,78,0.00,,,0.00,weatherlink.com 1.10,2013-08-19 07:50:00,
2013-08-19 02:05:00,51.3,45.0,29.72,SW,221,0.0,0.0,79,0.00,,,0.00,weatherlink.com 1.10,2013-08-19 08:05:00,
2013-08-19 02:20:00,50.8,45.0,29.72,SW,219,0.0,1.0,80,0.00,,,0.00,weatherlink.com 1.10,2013-08-19 08:20:00,
2013-08-19 02:35:00,50.2,45.0,29.72,SW,221,0.0,1.0,81,0.00,,,0.00,weatherlink.com 1.10,2013-08-19 08:35:00,
2013-08-19 02:50:00,49.7,45.0,29.72,SW,221,0.0,0.0,83,0.00,,,0.00,weatherlink.com 1.10,2013-08-19 08:50:00,
2013-08-19 03:05:00,49.3,44.0,29.72,SW,222,0.0,1.0,83,0.00,,,0.00,weatherlink.com 1.10,2013-08-19 09:05:00,
2013-08-19 03:21:00,48.7,43.0,29.72,SW,224,0.0,1.0,81,0.00,,,0.00,weatherlink.com 1.10,2013-08-19 09:21:00,
2013-08-19 03:36:00,48.1,43.0,29.71,SW,225,0.0,1.0,83,0.00,,,0.00,weatherlink.com 1.10,2013-08-19 09:36:00,
2013-08-19 03:51:00,47.8,44.0,29.71,SW,224,0.0,1.0,85,0.00,,,0.00,weatherlink.com 1.10,2013-08-19 09:51:00,
2013-08-19 04:06:00,47.4,43.0,29.71,SW,224,0.0,1.0,84,0.00,,,0.00,weatherlink.com 1.10,2013-08-19 10:06:00,
2013-08-19 04:21:00,46.9,42.0,29.71,SW,224,0.0,1.0,84,0.00,,,0.00,weatherlink.com 1.10,2013-08-19 10:21:00,
2013-08-19 04:36:00,46.6,42.0,29.71,SW,224,0.0,1.0,84,0.00,,,0.00,weatherlink.com 1.10,2013-08-19 10:36:00,
2013-08-19 04:51:00,45.9,41.0,29.71,SW,224,0.0,0.0,84,0.00,,,0.00,weatherlink.com 1.10,2013-08-19 10:51:00,
2013-08-19 05:06:00,45.5,41.0,29.70,SW,224,0.0,1.0,85,0.00,,,0.00,weatherlink.com 1.10,2013-08-19 11:06:00,
2013-08-19 05:21:00,45.5,41.0,29.71,SW,224,0.0,1.0,85,0.00,,,0.00,weatherlink.com 1.10,2013-08-19 11:21:00,
2013-08-19 05:36:00,45.1,41.0,29.71,SW,224,0.0,1.0,85,0.00,,,0.00,weatherlink.com 1.10,2013-08-19 11:36:00,
2013-08-19 05:51:00,44.7,41.0,29.71,SW,224,0.0,1.0,85,0.00,,,0.00,weatherlink.com 1.10,2013-08-19 11:51:00,
2013-08-19 06:06:00,44.4,41.0,29.71,SW,224,0.0,1.0,86,0.00,,,0.00,weatherlink.com 1.10,2013-08-19 12:06:00,
2013-08-19 06:21:00,44.1,41.0,29.71,SW,224,0.0,1.0,87,0.00,,,0.00,weatherlink.com 1.10,2013-08-19 12:21:00,
2013-08-19 06:36:00,44.0,40.0,29.71,SW,224,0.0,0.0,87,0.00,,,0.00,weatherlink.com 1.10,2013-08-19 12:36:00,
2013-08-19 06:51:00,43.8,41.0,29.71,West,275,1.0,1.0,88,0.00,,,0.00,weatherlink.com 1.10,2013-08-19 12:51:00,
2013-08-19 07:06:00,43.3,40.0,29.71,West,271,0.0,1.0,87,0.00,,,0.00,weatherlink.com 1.10,2013-08-19 13:06:00,
2013-08-19 07:21:00,43.1,40.0,29.71,West,271,0.0,1.0,87,0.00,,,0.00,weatherlink.com 1.10,2013-08-19 13:21:00,
2013-08-19 07:36:00,43.1,40.0,29.71,West,271,0.0,1.0,87,0.00,,,0.00,weatherlink.com 1.10,2013-08-19 13:36:00,
2013-08-19 07:51:00,44.8,40.0,29.71,West,271,0.0,1.0,84,0.00,,,0.00,weatherlink.com 1.10,2013-08-19 13:51:00,
2013-08-19 08:06:00,48.2,42.0,29.71,West,270,0.0,0.0,79,0.00,,,0.00,weatherlink.com 1.10,2013-08-19 14:06:00,
2013-08-19 08:21:00,51.3,44.0,29.72,West,268,0.0,1.0,77,0.00,,,0.00,weatherlink.com 1.10,2013-08-19 14:21:00,
2013-08-19 08:36:00,59.8,48.0,29.72,SSW,210,0.0,0.0,65,0.00,,,0.00,weatherlink.com 1.10,2013-08-19 14:36:00,
2013-08-19 08:51:00,63.8,49.0,29.72,SSW,210,0.0,1.0,58,0.00,,,0.00,weatherlink.com 1.10,2013-08-19 14:51:00,
2013-08-19 09:06:00,67.8,48.0,29.72,SSW,209,0.0,0.0,49,0.00,,,0.00,weatherlink.com 1.10,2013-08-19 15:06:00,
2013-08-19 09:21:00,70.9,48.0,29.72,SSW,210,0.0,0.0,45,0.00,,,0.00,weatherlink.com 1.10,2013-08-19 15:21:00,
2013-08-19 09:36:00,71.3,52.0,29.72,North,356,0.0,3.0,51,0.00,,,0.00,weatherlink.com 1.10,2013-08-19 15:36:00,
2013-08-19 09:51:00,72.5,51.0,29.72,North,358,0.0,0.0,47,0.00,,,0.00,weatherlink.com 1.10,2013-08-19 15:51:00,
2013-08-19 10:06:00,72.9,50.0,29.54,North,359,0.0,0.0,44,0.00,,,0.00,weatherlink.com 1.10,2013-08-19 16:06:00,
2013-08-19 10:21:00,73.0,50.0,29.30,North,354,0.0,0.0,45,0.00,,,0.00,weatherlink.com 1.10,2013-08-19 16:21:00,
2013-08-19 10:36:00,73.1,50.0,29.34,North,354,0.0,0.0,44,0.00,,,0.00,weatherlink.com 1.10,2013-08-19 16:36:00,
2013-08-19 10:51:00,73.3,51.0,28.55,North,354,0.0,0.0,45,0.00,,,0.00,weatherlink.com 1.10,2013-08-19 16:51:00,
2013-08-19 11:07:00,73.8,50.0,28.25,North,354,0.0,0.0,44,0.00,,,0.00,weatherlink.com 1.10,2013-08-19 17:07:00,
2013-08-19 11:22:00,74.4,50.0,28.46,North,354,0.0,0.0,43,0.00,,,0.00,weatherlink.com 1.10,2013-08-19 17:22:00,
2013-08-19 11:37:00,75.0,50.0,28.30,North,356,0.0,0.0,42,0.00,,,0.00,weatherlink.com 1.10,2013-08-19 17:37:00,
2013-08-19 11:52:00,75.8,50.0,28.27,North,356,0.0,0.0,40,0.00,,,0.00,weatherlink.com 1.10,2013-08-19 17:52:00,
2013-08-19 12:07:00,76.8,49.0,28.64,North,355,0.0,0.0,38,0.00,,,0.00,weatherlink.com 1.10,2013-08-19 18:07:00,
2013-08-19 12:22:00,77.6,48.0,28.47,North,356,0.0,0.0,35,0.00,,,0.00,weatherlink.com 1.10,2013-08-19 18:22:00,
2013-08-19 12:37:00,78.4,50.0,28.68,North,355,0.0,0.0,37,0.00,,,0.00,weatherlink.com 1.10,2013-08-19 18:37:00,
2013-08-19 12:52:00,79.6,50.0,28.68,North,356,0.0,0.0,36,0.00,,,0.00,weatherlink.com 1.10,2013-08-19 18:52:00,
2013-08-19 13:07:00,80.8,51.0,28.70,North,355,0.0,0.0,35,0.00,,,0.00,weatherlink.com 1.10,2013-08-19 19:07:00,
2013-08-19 13:22:00,82.2,51.0,28.48,North,355,0.0,0.0,34,0.00,,,0.00,weatherlink.com 1.10,2013-08-19 19:22:00,
2013-08-19 13:52:00,76.8,47.0,28.12,North,355,0.0,0.0,35,0.00,,,0.00,weatherlink.com 1.10,2013-08-19 19:52:00,
2013-08-19 14:07:00,76.5,48.0,29.82,North,355,0.0,0.0,37,0.00,,,0.00,weatherlink.com 1.10,2013-08-19 20:07:00,
2013-08-19 14:59:00,79.3,49.0,30.32,North,355,0.0,0.0,35,0.00,,,0.00,weatherlink.com 1.10,2013-08-19 20:59:00,
2013-08-19 15:07:00,79.8,51.0,30.53,North,355,0.0,1.0,36,0.00,,,0.00,weatherlink.com 1.10,2013-08-19 21:07:00,
2013-08-19 15:22:00,80.4,52.0,30.58,North,356,0.0,0.0,37,0.00,,,0.00,weatherlink.com 1.10,2013-08-19 21:22:00,
2013-08-19 15:37:00,80.6,51.0,30.63,North,355,0.0,0.0,35,0.00,,,0.00,weatherlink.com 1.10,2013-08-19 21:37:00,
2013-08-19 15:52:00,82.0,51.0,30.25,North,355,0.0,0.0,34,0.00,,,0.00,weatherlink.com 1.10,2013-08-19 21:52:00,
2013-08-19 16:07:00,80.5,49.0,30.38,North,355,0.0,0.0,33,0.00,,,0.00,weatherlink.com 1.10,2013-08-19 22:07:00,
2013-08-19 16:22:00,78.3,48.0,30.37,North,355,0.0,0.0,35,0.00,,,0.00,weatherlink.com 1.10,2013-08-19 22:22:00,
2013-08-19 16:37:00,91.9,48.0,30.37,NW,307,1.0,5.0,22,0.00,,,0.00,weatherlink.com 1.10,2013-08-19 22:37:00,
2013-08-19 16:52:00,93.9,48.0,30.36,WNW,295,4.0,5.0,21,0.00,,,0.00,weatherlink.com 1.10,2013-08-19 22:52:00,
2013-08-19 17:07:00,95.2,48.0,30.36,NW,321,0.0,3.0,20,0.00,,,0.00,weatherlink.com 1.10,2013-08-19 23:07:00,
2013-08-19 17:23:00,96.5,47.0,30.35,NE,34,0.0,1.0,18,0.00,,,0.00,weatherlink.com 1.10,2013-08-19 23:23:00,
2013-08-19 17:38:00,96.2,43.0,30.34,NE,45,0.0,2.0,16,0.00,,,0.00,weatherlink.com 1.10,2013-08-19 23:38:00,
2013-08-19 17:53:00,97.6,44.0,30.34,ENE,57,1.0,3.0,16,0.00,,,0.00,weatherlink.com 1.10,2013-08-19 23:53:00,
2013-08-19 18:08:00,95.5,43.0,30.34,SE,138,0.0,3.0,16,0.00,,,0.00,weatherlink.com 1.10,2013-08-20 00:08:00,
2013-08-19 18:23:00,95.6,44.0,30.33,ESE,115,2.0,2.0,17,0.00,,,0.00,weatherlink.com 1.10,2013-08-20 00:23:00,
2013-08-19 18:38:00,95.7,43.0,30.32,SE,135,0.0,1.0,16,0.00,,,0.00,weatherlink.com 1.10,2013-08-20 00:38:00,
2013-08-19 18:53:00,95.4,48.0,30.32,East,101,4.0,5.0,20,0.00,,,0.00,weatherlink.com 1.10,2013-08-20 00:53:00,
2013-08-19 19:08:00,94.7,49.0,30.32,SSE,163,2.0,3.0,21,0.00,,,0.00,weatherlink.com 1.10,2013-08-20 01:08:00,
2013-08-19 19:23:00,94.5,49.0,30.31,SSE,160,1.0,3.0,21,0.00,,,0.00,weatherlink.com 1.10,2013-08-20 01:23:00,
2013-08-19 19:38:00,94.1,47.0,30.31,SSE,156,0.0,1.0,20,0.00,,,0.00,weatherlink.com 1.10,2013-08-20 01:38:00,
2013-08-19 19:53:00,92.4,48.0,30.30,SSE,166,1.0,2.0,22,0.00,,,0.00,weatherlink.com 1.10,2013-08-20 01:53:00,
2013-08-19 20:08:00,90.9,52.0,30.30,SSE,152,0.0,2.0,26,0.00,,,0.00,weatherlink.com 1.10,2013-08-20 02:08:00,
2013-08-19 20:23:00,88.6,53.0,30.30,ESE,111,0.0,2.0,30,0.00,,,0.00,weatherlink.com 1.10,2013-08-20 02:23:00,
2013-08-19 20:38:00,86.8,52.0,30.30,ESE,113,1.0,1.0,30,0.00,,,0.00,weatherlink.com 1.10,2013-08-20 02:38:00,
2013-08-19 20:53:00,84.7,53.0,30.30,ESE,114,0.0,1.0,34,0.00,,,0.00,weatherlink.com 1.10,2013-08-20 02:53:00,
2013-08-19 21:08:00,82.7,54.0,30.30,ESE,113,0.0,1.0,37,0.00,,,0.00,weatherlink.com 1.10,2013-08-20 03:08:00,
2013-08-19 21:23:00,80.7,53.0,30.30,ESE,114,0.0,1.0,38,0.00,,,0.00,weatherlink.com 1.10,2013-08-20 03:23:00,
2013-08-19 21:38:00,79.6,53.0,30.31,ESE,113,0.0,1.0,40,0.00,,,0.00,weatherlink.com 1.10,2013-08-20 03:38:00,
2013-08-19 21:53:00,77.3,59.0,30.31,NNE,17,0.0,3.0,54,0.00,,,0.00,weatherlink.com 1.10,2013-08-20 03:53:00,
2013-08-19 22:08:00,76.1,60.0,30.31,NNE,17,0.0,1.0,58,0.00,,,0.00,weatherlink.com 1.10,2013-08-20 04:08:00,
2013-08-19 22:23:00,74.4,60.0,30.32,NNE,26,2.0,4.0,61,0.00,,,0.00,weatherlink.com 1.10,2013-08-20 04:23:00,
2013-08-19 22:38:00,72.6,60.0,30.32,North,354,0.0,2.0,65,0.00,,,0.00,weatherlink.com 1.10,2013-08-20 04:38:00,
2013-08-19 22:53:00,72.9,61.0,30.32,East,97,0.0,2.0,67,0.00,,,0.00,weatherlink.com 1.10,2013-08-20 04:53:00,
2013-08-19 23:08:00,72.0,62.0,30.33,NW,323,1.0,2.0,70,0.00,,,0.00,weatherlink.com 1.10,2013-08-20 05:08:00,
2013-08-19 23:23:00,71.2,56.0,30.34,NW,307,0.0,5.0,58,0.00,,,0.00,weatherlink.com 1.10,2013-08-20 05:23:00,
2013-08-19 23:38:00,70.8,54.0,30.34,SSE,161,4.0,4.0,56,0.00,,,0.00,weatherlink.com 1.10,2013-08-20 05:38:00,
2013-08-19 23:53:00,70.1,55.0,30.34,SSE,159,0.0,1.0,59,0.00,,,0.00,weatherlink.com 1.10,2013-08-20 05:53:00,